GW5113 Weather Reports


Display with metric or nautical units.
time (UTC)temp
F
wind
direction
speed
MPH
gust
MPH
rain 1hr
in
rain 24hr
in
rain mn
in
humidity
%
barometer
mb
20260505063610 50 155 0.0 0.0 0.00 0.00 0.00 99 1012.1
20260505063106 50 155 0.0 0.0 0.00 0.00 0.00 99 1012.1
20260505062603 50 155 0.0 0.0 0.00 0.00 0.00 99 1012.0
20260505062100 50 158 0.0 0.0 0.00 0.00 0.00 99 1012.3
20260505061557 50 143 0.0 0.0 0.00 0.00 0.00 99 1012.2
20260505061055 50 144 0.0 0.0 0.00 0.00 0.00 99 1012.2
20260505060552 50 149 0.0 0.0 0.00 0.00 0.00 99 1012.2
20260505060049 50 149 0.0 0.0 0.00 0.00 0.00 99 1012.2
20260505055544 51 149 0.0 0.0 0.00 0.00 0.00 99 1012.2
20260505055041 51 149 0.0 0.0 0.00 0.00 0.00 99 1012.4
20260505054539 51 149 0.0 0.0 0.00 0.00 0.00 99 1012.2
20260505054037 51 151 0.0 0.0 0.00 0.00 0.00 99 1012.3
20260505053533 51 151 0.0 0.0 0.00 0.00 0.00 99 1012.3
20260505053030 51 151 0.0 0.0 0.00 0.00 0.00 99 1012.3
20260505052527 51 152 0.0 0.0 0.00 0.00 0.00 99 1012.2
20260505052025 51 158 0.0 0.0 0.00 0.00 0.00 99 1012.0
20260505051521 51 158 0.0 0.0 0.00 0.00 0.00 99 1012.2
20260505051020 51 164 0.0 0.0 0.00 0.00 0.00 99 1012.1
20260505050517 51 209 0.0 0.0 0.00 0.00 0.00 99 1011.9
20260505041445 51 148 0.0 0.0 0.00 0.00 0.00 99 1011.7
20260505040942 51 148 0.0 0.0 0.00 0.00 0.00 99 1011.6
20260505040440 51 145 0.0 0.0 0.00 0.00 0.00 99 1011.6
20260505035936 51 144 0.0 0.0 0.00 0.00 0.00 99 1011.5
20260505035432 51 144 0.0 0.0 0.00 0.00 0.00 99 1011.4
20260505034930 51 145 0.0 0.0 0.00 0.00 0.00 99 1011.5
20260505034426 51 152 0.0 0.0 0.00 0.00 0.00 99 1011.5
20260505033923 51 149 0.0 0.0 0.00 0.00 0.00 99 1011.3
20260505033420 52 136 0.0 0.0 0.00 0.00 0.00 99 1011.4
20260505032918 52 224 0.0 0.0 0.00 0.00 0.00 99 1011.6
20260505032415 52 130 0.0 0.0 0.00 0.00 0.00 99 1011.5
20260505031911 52 129 0.0 0.0 0.00 0.00 0.00 99 1011.4
20260505031408 52 170 0.0 0.0 0.00 0.00 0.00 98 1011.6
20260505030905 52 166 0.0 0.0 0.00 0.00 0.00 98 1011.6
20260505030401 52 166 0.0 0.0 0.00 0.00 0.00 98 1011.5
20260505025856 52 153 0.0 0.0 0.00 0.00 0.00 98 1011.6
20260505025354 52 180 0.0 0.0 0.00 0.00 0.00 98 1011.5
20260505024853 52 180 0.0 0.0 0.00 0.00 0.00 98 1011.5
20260505024350 53 180 0.0 0.0 0.00 0.00 0.00 97 1011.4
20260505023847 53 181 0.0 0.0 0.00 0.00 0.00 97 1011.4
20260505023344 53 180 0.0 0.0 0.00 0.00 0.00 97 1011.4
20260505022841 53 180 0.0 0.0 0.00 0.00 0.00 96 1011.6
20260505022338 53 180 0.0 0.0 0.00 0.00 0.00 96 1011.4
20260505021836 53 221 0.0 0.0 0.00 0.00 0.00 96 1011.2
20260505021332 53 182 0.0 0.0 0.00 0.00 0.00 96 1011.4
20260505020828 54 182 0.0 0.0 0.00 0.00 0.00 95 1011.3
20260505020324 54 182 0.0 0.0 0.00 0.00 0.00 95 1011.4
20260505015820 54 182 0.0 0.0 0.00 0.00 0.00 95 1011.4
20260505015318 54 182 0.0 0.0 0.00 0.00 0.00 94 1011.4
20260505014815 54 182 0.0 0.0 0.00 0.00 0.00 93 1011.4
20260505014312 55 182 0.0 0.0 0.00 0.00 0.00 94 1011.3
20260505013808 55 182 0.0 0.0 0.00 0.00 0.00 93 1011.4
20260505013306 55 181 0.0 0.0 0.00 0.00 0.00 92 1011.3
20260505012804 55 181 0.0 0.0 0.00 0.00 0.00 92 1011.3
20260505012304 55 199 0.0 0.0 0.00 0.00 0.00 92 1011.3
20260505011757 56 199 0.0 0.0 0.00 0.00 0.00 91 1011.3
20260505011254 56 199 0.0 0.0 0.00 0.00 0.00 91 1011.1
20260505010750 56 199 0.0 0.0 0.00 0.00 0.00 90 1011.2
20260505010247 56 199 0.0 0.0 0.00 0.00 0.00 90 1011.4
20260505005743 57 199 0.0 0.0 0.00 0.00 0.00 89 1011.1
20260505005241 57 199 0.0 0.0 0.00 0.00 0.00 88 1011.2
20260505004737 58 199 0.0 0.0 0.00 0.00 0.00 87 1011.0
20260505004234 58 199 0.0 0.0 0.00 0.00 0.00 87 1011.0
20260505003731 58 199 0.0 0.0 0.00 0.00 0.00 86 1011.1
20260505003229 59 199 0.0 0.0 0.00 0.00 0.00 86 1011.2
20260505002725 59 199 0.0 0.0 0.00 0.00 0.00 85 1011.4
20260505002222 60 199 0.0 0.0 0.00 0.00 0.00 84 1011.3
20260505001720 60 199 0.0 0.0 0.00 0.00 0.00 82 1011.5
20260505001217 61 199 0.0 0.0 0.00 0.00 0.00 82 1011.4
20260505000714 62 199 0.0 0.0 0.00 0.00 0.00 81 1011.4
20260505000212 62 199 0.0 0.0 0.00 0.00 0.00 80 1011.5
20260504235708 62 199 0.0 0.0 0.00 0.00 0.00 80 1011.3
20260504235204 63 199 0.0 0.0 0.00 0.00 0.00 79 1011.2
20260504234702 63 171 0.0 0.0 0.00 0.00 0.00 79 1011.5
20260504234159 63 171 0.0 0.0 0.00 0.00 0.00 77 1011.4
20260504233655 63 176 0.0 0.0 0.00 0.00 0.00 76 1011.4
20260504233151 64 200 0.0 0.0 0.00 0.00 0.00 76 1011.6
20260504232648 64 199 0.0 0.0 0.00 0.00 0.00 74 1011.5
20260504232145 65 169 0.0 0.0 0.00 0.00 0.00 71 1011.6
20260504231642 66 157 0.0 1.0 0.00 0.00 0.00 72 1011.6
20260504231138 66 214 0.0 0.0 0.00 0.00 0.00 70 1011.7
20260504230635 67 218 0.0 0.0 0.00 0.00 0.00 70 1011.7
20260504230134 68 217 0.0 0.0 0.00 0.00 0.00 65 1011.5
20260504225631 69 222 0.0 0.0 0.00 0.00 0.00 63 1011.7
20260504225127 70 214 0.0 0.0 0.00 0.00 0.00 59 1012.0
20260504224624 71 187 0.0 2.0 0.00 0.00 0.00 55 1011.8
20260504224120 71 129 2.0 3.0 0.00 0.00 0.00 51 1011.9
20260504223617 72 41 2.0 2.0 0.00 0.00 0.00 52 1012.0
20260504223114 72 41 1.0 2.0 0.00 0.00 0.00 50 1012.0
20260504222611 73 56 2.0 3.0 0.00 0.00 0.00 48 1011.9
20260504222108 74 272 2.0 3.0 0.00 0.00 0.00 47 1012.2
20260504221605 74 169 0.0 2.0 0.00 0.00 0.00 46 1012.1
20260504221102 74 70 2.0 2.0 0.00 0.00 0.00 48 1012.1
20260504220558 73 269 1.0 3.0 0.00 0.00 0.00 50 1012.0
20260504220056 73 339 1.0 2.0 0.00 0.00 0.00 48 1012.1
20260504215552 72 64 0.0 1.0 0.00 0.00 0.00 52 1012.2
20260504215050 72 107 1.0 1.0 0.00 0.00 0.00 54 1011.8
20260504214545 73 334 2.0 3.0 0.00 0.00 0.00 50 1011.9
20260504214042 74 309 1.0 2.0 0.00 0.00 0.00 48 1011.9
20260504213538 73 236 0.0 2.0 0.00 0.00 0.00 47 1012.0
20260504213036 72 309 0.0 1.0 0.00 0.00 0.00 50 1012.0
20260504212531 71 250 1.0 1.0 0.00 0.00 0.00 55 1012.0
20260504212029 70 187 0.0 6.0 0.00 0.00 0.00 55 1011.8
20260504211526 71 114 0.0 1.0 0.00 0.00 0.00 59 1012.0
20260504211023 71 69 4.0 4.0 0.00 0.00 0.00 52 1012.1
20260504210520 72 80 2.0 3.0 0.00 0.00 0.00 49 1012.0
20260504210016 73 315 0.0 7.0 0.00 0.00 0.00 48 1011.8
20260504205515 73 5 1.0 1.0 0.00 0.00 0.00 46 1011.5
20260504205012 74 61 1.0 4.0 0.00 0.00 0.00 47 1011.3
20260504204510 73 105 1.0 2.0 0.00 0.00 0.00 49 1011.2
20260504204009 73 120 0.0 2.0 0.00 0.00 0.00 50 1011.5
20260504203506 73 288 2.0 3.0 0.00 0.00 0.00 47 1011.4
20260504203003 74 289 1.0 1.0 0.00 0.00 0.00 49 1011.5
20260504202459 73 285 1.0 4.0 0.00 0.00 0.00 46 1011.5
20260504201955 74 318 1.0 1.0 0.00 0.00 0.00 45 1011.7
20260504201452 74 70 0.0 4.0 0.00 0.00 0.00 48 1011.7
20260504200950 74 43 0.0 3.0 0.00 0.00 0.00 48 1011.8
20260504200446 73 10 1.0 6.0 0.00 0.00 0.00 47 1012.0
20260504195654 73 19 0.0 1.0 0.00 0.00 0.00 49 1011.9
20260504195149 73 19 0.0 1.0 0.00 0.00 0.00 49 1011.9
20260504194646 73 279 0.0 2.0 0.00 0.00 0.00 47 1012.0
20260504194142 74 37 1.0 2.0 0.00 0.00 0.00 49 1012.2
20260504193639 74 112 1.0 1.0 0.00 0.00 0.00 50 1012.1
20260504193137 73 306 2.0 3.0 0.00 0.00 0.00 47 1012.0
20260504192634 73 206 1.0 3.0 0.00 0.00 0.00 47 1012.4
20260504192132 72 73 1.0 4.0 0.00 0.00 0.00 50 1012.2
20260504191631 71 316 0.0 3.0 0.00 0.00 0.00 49 1012.4
20260504191126 71 316 0.0 3.0 0.00 0.00 0.00 49 1012.4
20260504190622 71 82 0.0 2.0 0.00 0.00 0.00 50 1012.8
20260504190119 72 216 0.0 6.0 0.00 0.00 0.00 47 1012.7
20260504185616 72 105 1.0 4.0 0.00 0.00 0.00 52 1012.8
20260504185113 72 88 3.0 6.0 0.00 0.00 0.00 50 1012.6
20260504184608 73 57 1.0 2.0 0.00 0.00 0.00 53 1012.7
20260504184104 73 248 1.0 2.0 0.00 0.00 0.00 46 1012.7
20260504183601 73 273 2.0 4.0 0.00 0.00 0.00 48 1012.4
20260504183059 74 13 2.0 3.0 0.00 0.00 0.00 45 1012.4
20260504182556 73 61 1.0 3.0 0.00 0.00 0.00 50 1012.6
20260504182053 72 106 0.0 2.0 0.00 0.00 0.00 51 1012.7
20260504181550 72 82 2.0 2.0 0.00 0.00 0.00 50 1012.5
20260504181048 71 57 1.0 6.0 0.00 0.00 0.00 50 1012.7
20260504180547 72 130 1.0 3.0 0.00 0.00 0.00 48 1012.9
20260504180046 72 106 1.0 3.0 0.00 0.00 0.00 50 1012.9
20260504175542 71 53 0.0 3.0 0.00 0.00 0.00 50 1013.0
20260504175039 71 29 1.0 2.0 0.00 0.00 0.00 50 1013.1
20260504174537 71 308 2.0 2.0 0.00 0.00 0.00 50 1013.2
20260504174034 71 310 2.0 6.0 0.00 0.00 0.00 48 1013.2
20260504173531 70 39 1.0 3.0 0.00 0.00 0.00 49 1013.3
20260504173028 70 253 5.0 6.0 0.00 0.00 0.00 51 1013.8
20260504172524 69 97 1.0 3.0 0.00 0.00 0.00 52 1013.6
20260504172021 69 98 1.0 2.0 0.00 0.00 0.00 50 1013.8
20260504171518 69 55 2.0 8.0 0.00 0.00 0.00 53 1013.7
20260504171014 69 269 2.0 2.0 0.00 0.00 0.00 50 1013.6
20260504170510 69 219 3.0 4.0 0.00 0.00 0.00 51 1013.6
20260504160431 66 330 2.0 4.0 0.00 0.00 0.00 54 1015.1
20260504150854 62 61 1.0 4.0 0.00 0.00 0.00 59 1015.8
20260504150351 62 44 0.0 7.0 0.00 0.00 0.00 58 1015.7
20260504141321 61 118 0.0 2.0 0.00 0.00 0.00 58 1015.8
20260504140817 61 306 0.0 2.0 0.00 0.00 0.00 56 1015.7
20260504140313 61 24 0.0 4.0 0.00 0.00 0.00 55 1015.5
20260504130742 58 294 1.0 2.0 0.00 0.00 0.00 57 1015.6
20260504130238 58 46 0.0 2.0 0.00 0.00 0.00 59 1015.6
20260504120202 48 171 0.0 0.0 0.00 0.00 0.00 93 1015.5
20260504110629 42 163 0.0 0.0 0.00 0.00 0.00 98 1015.3
20260504110125 42 163 0.0 0.0 0.00 0.00 0.00 98 1015.7
20260504100551 44 172 0.0 0.0 0.00 0.00 0.00 96 1015.8
20260504081944 46 186 0.0 0.0 0.00 0.00 0.00 92 1016.7
20260504081442 46 186 0.0 0.0 0.00 0.00 0.00 92 1016.6
20260504080937 46 186 0.0 0.0 0.00 0.00 0.00 92 1016.8
20260504080434 46 186 0.0 0.0 0.00 0.00 0.00 92 1016.8
20260504070402 46 186 0.0 0.0 0.00 0.00 0.00 91 1016.7